Wind_Speed
63 64 64 65 65 66 66 66 67 68 68 68 69 69 69 69 68 67 67 67 66 65 62 58 54 52 50 50 51 54 57 57 54 52 50 49 47 46 46 45 45 45
67 68 68 69 69 69 70 70 71 71 72 72 72 72 72 72 71 71 70 69 68 68 66 63 59 55 52 51 53 55 59 60 58 55 53 51 50 48 45 43 43 46
71 72 72 73 74 75 75 75 75 75 75 75 75 75 74 74 74 74 73 71 70 69 68 66 62 58 55 53 54 56 60 63 62 59 57 54 53 50 47 44 44 47
74 75 76 77 78 79 80 80 80 80 79 78 78 78 77 77 77 77 76 74 72 70 68 67 64 60 57 55 54 56 60 64 65 63 61 59 57 53 48 47 47 50
76 77 78 79 81 82 83 84 84 85 84 82 81 80 79 78 79 79 78 77 74 72 70 67 66 63 59 57 56 56 59 65 68 67 64 63 62 56 50 50 53 53
79 80 81 82 83 84 85 86 87 88 88 87 85 83 81 80 79 79 79 78 77 75 73 70 68 65 62 60 58 58 59 64 69 70 68 68 68 63 56 56 58 57
83 84 84 85 86 87 88 89 90 92 92 91 89 87 85 83 81 80 79 80 79 78 76 74 72 69 67 64 62 61 62 64 69 73 73 71 72 70 64 61 62 62
87 88 89 89 89 90 91 92 93 94 94 93 92 89 87 85 83 83 82 81 81 81 79 78 76 74 72 69 66 64 65 66 70 74 76 76 75 74 71 67 66 66
91 92 92 92 93 93 93 93 93 93 93 92 91 90 89 87 85 85 84 84 83 82 81 80 79 77 76 74 71 68 67 69 72 75 79 79 79 78 75 71 69 69
95 95 96 96 95 95 94 93 92 91 90 90 90 90 90 89 88 86 85 84 82 82 82 81 80 79 78 77 75 72 70 71 74 77 80 82 82 82 80 75 72 72
99 99 99 98 97 96 94 93 92 91 90 90 90 91 91 90 89 87 85 82 80 80 80 80 80 80 78 78 77 74 72 73 76 78 81 85 85 85 84 80 75 74
102 101 100 99 98 97 95 94 93 93 93 93 93 92 91 90 88 86 83 81 78 77 77 77 79 79 78 78 77 76 74 74 76 80 83 86 87 88 88 84 79 76
104 102 101 100 99 97 97 97 97 97 95 94 92 90 88 87 85 83 81 79 77 75 73 74 75 76 76 76 76 76 75 75 76 80 84 87 89 90 90 88 84 79
105 104 103 102 101 100 100 100 99 97 94 91 89 86 84 82 82 81 79 77 76 74 73 72 72 74 74 75 75 75 75 75 76 80 84 88 90 92 93 91 87 83
108 107 106 104 103 103 102 101 98 95 91 88 85 83 82 81 80 80 79 77 76 75 73 72 71 71 72 73 74 75 75 76 77 79 84 89 91 92 95 94 90 86
110 108 106 105 104 103 101 98 94 90 88 85 84 83 81 81 80 80 79 77 76 76 74 72 70 69 70 72 73 74 74 75 77 79 82 88 92 93 96 97 93 89
110 108 106 104 103 100 96 93 90 87 85 84 82 81 80 80 79 78 77 77 78 77 75 73 71 69 70 71 72 74 74 74 77 79 82 88 92 93 96 98 96 92
108 106 104 102 98 95 92 89 87 85 83 81 80 78 77 76 75 75 75 76 77 76 75 73 72 70 70 70 71 73 74 74 76 79 81 87 92 94 96 100 99 95
106 103 100 97 93 91 88 86 84 82 79 77 75 74 72 70 69 69 71 73 74 73 73 73 72 72 70 70 71 73 74 74 76 79 82 86 92 95 97 101 101 97
102 99 95 92 90 88 86 84 81 78 75 72 70 67 65 63 61 61 63 66 68 68 68 69 71 72 72 70 72 73 74 75 76 79 82 85 91 95 97 101 103 100
97 93 90 89 87 86 83 81 77 73 69 67 64 62 59 57 55 55 55 58 62 64 64 64 66 70 72 72 73 74 74 75 76 78 81 85 91 95 97 101 105 102
92 89 88 86 85 82 80 76 72 69 65 61 58 56 55 53 51 50 50 52 56 59 61 60 61 66 71 72 73 74 74 75 76 78 80 85 91 95 97 101 106 105
88 87 85 83 81 78 75 71 68 64 60 56 53 51 51 50 49 47 46 47 50 54 56 57 58 62 68 71 73 74 73 73 75 77 80 84 91 95 97 102 106 106
85 84 81 79 76 73 70 66 62 58 55 51 49 48 47 47 46 45 43 42 45 48 52 53 54 59 65 69 72 73 71 71 74 77 80 84 91 95 97 102 107 107
82 80 77 75 72 68 64 60 56 54 51 48 45 43 42 42 41 41 40 39 40 44 47 49 51 55 61 66 69 71 70 69 71 76 79 84 92 96 97 101 106 107
78 76 74 70 66 61 57 54 52 49 47 44 41 38 37 37 36 36 37 37 37 39 43 45 47 52 57 62 66 69 68 67 69 74 78 85 92 96 97 101 106 107
Wind_Direction
299 298 297 297 296 295 294 293 292 292 291 291 291 291 291 291 291 290 289 288 288 287 285 282 277 271 263 252 243 236 236 238 233 228 229 231 230 231 232 232 232 229
300 299 298 298 297 296 295 294 293 293 293 292 292 291 291 291 291 290 289 288 287 286 284 282 278 272 264 254 245 237 233 234 233 227 225 227 227 227 227 228 231 229
301 300 300 299 299 298 297 296 295 295 294 294 293 292 292 291 290 290 289 287 286 284 283 281 278 272 265 256 246 238 232 230 231 227 222 223 225 223 222 223 226 225
301 300 300 300 299 299 299 298 298 297 296 295 294 293 292 291 290 289 288 287 285 283 281 279 276 271 265 257 248 240 233 228 228 226 221 220 221 219 219 221 221 221
300 300 299 299 299 298 299 299 298 297 297 296 294 293 292 291 290 288 287 286 284 282 280 277 275 270 264 257 249 241 235 229 226 224 221 218 218 215 216 218 217 217
299 299 299 298 298 298 298 298 297 297 297 297 296 295 293 291 289 288 286 284 283 281 279 276 273 269 263 257 250 242 236 230 225 223 220 217 216 214 214 215 215 215
300 299 299 298 298 298 298 298 297 297 296 296 295 294 293 291 289 287 284 282 281 279 278 275 272 268 263 257 251 244 237 231 225 221 219 217 215 214 214 213 213 215
300 300 300 299 299 299 298 297 296 295 294 293 292 291 290 289 288 286 283 281 279 277 275 273 270 266 262 257 252 245 237 230 226 221 218 216 214 213 214 213 212 213
301 301 301 300 300 299 298 297 296 294 293 291 290 289 288 287 286 284 282 280 278 276 273 270 267 264 261 257 252 245 237 230 225 221 217 215 213 212 212 212 212 211
302 302 302 301 301 300 299 297 296 295 293 292 290 289 288 287 285 283 281 278 276 273 270 267 264 261 258 255 251 245 238 230 225 221 217 214 213 211 210 211 210 210
303 303 303 303 302 301 300 299 298 297 295 293 292 290 289 287 285 283 279 276 273 270 267 265 262 259 255 253 249 245 239 230 224 220 216 214 212 210 209 209 209 208
304 304 304 304 303 302 302 301 300 298 297 295 293 291 289 287 284 281 278 275 271 268 265 262 260 257 254 251 248 244 239 232 224 219 216 213 211 209 208 208 208 207
306 306 305 305 305 304 303 302 301 299 297 294 292 289 287 284 282 279 277 274 271 267 263 260 258 255 252 249 246 243 239 233 225 219 216 213 210 208 207 207 207 206
307 307 307 307 306 305 304 302 300 298 295 293 290 288 285 282 279 277 275 272 270 267 263 259 256 254 251 248 245 241 237 233 227 219 215 213 210 207 206 206 206 205
309 309 308 307 306 305 303 301 299 296 294 292 289 286 283 280 278 275 273 271 268 265 262 259 255 252 250 247 244 241 236 232 227 220 215 212 210 207 205 204 204 204
309 309 308 307 306 304 302 300 297 295 292 290 287 284 282 279 277 274 272 270 267 264 261 257 254 250 248 246 243 240 235 231 227 221 215 211 209 206 204 203 203 203
309 308 307 306 305 303 300 297 295 293 291 289 286 284 281 278 275 272 270 267 264 262 258 255 252 248 245 242 241 238 234 230 226 221 214 210 209 206 203 202 202 202
308 308 307 306 304 301 298 297 295 293 292 290 287 284 281 278 274 271 268 265 262 259 257 253 250 247 243 240 238 236 233 229 224 220 214 209 208 206 202 201 201 200
309 308 307 305 302 300 298 297 296 295 293 291 288 285 282 279 275 270 267 264 262 259 256 252 248 245 242 238 235 233 230 227 223 219 214 209 207 205 201 199 200 199
309 308 306 303 301 301 300 299 298 296 294 292 289 287 284 280 276 270 265 262 261 258 255 251 247 244 241 236 233 231 228 225 221 218 213 208 205 204 201 198 198 198
309 307 304 303 303 302 302 300 299 297 296 294 292 289 285 281 276 271 266 261 258 256 253 249 244 242 240 236 232 229 225 222 219 216 212 206 204 203 200 197 197 198
308 306 304 304 304 303 302 301 300 299 297 295 293 289 285 282 277 272 267 261 257 254 252 248 241 238 238 236 232 229 224 220 217 214 210 205 202 202 200 197 196 197
306 305 305 305 304 304 303 302 301 300 299 297 294 290 286 283 279 274 268 261 256 253 250 247 241 235 234 234 232 229 225 219 214 212 208 203 200 201 198 196 195 196
305 305 306 306 306 305 304 303 302 302 300 298 295 291 286 282 279 275 270 262 256 252 249 246 241 235 232 231 230 228 225 219 213 210 206 201 198 199 197 194 194 195
306 307 308 307 306 305 304 304 304 303 302 299 295 291 286 283 279 276 271 264 257 252 248 244 239 235 232 230 228 226 223 218 213 208 203 199 197 197 196 193 193 193
308 308 308 307 306 305 305 306 306 304 302 300 296 292 288 284 281 276 272 267 259 252 248 243 238 234 231 228 227 225 221 215 211 206 201 197 195 195 194 191 191 192
Height
10654 10651 10649 10647 10645 10643 10641 10640 10638 10636 10634 10633 10631 10629 10628 10627 10626 10626 10625 10624 10624 10624 10625 10626 10628 10629 10631 10633 10636 10639 10641 10644 10648 10652 10657 10662 10666 10670 10674 10678 10683 10687
10643 10640 10638 10636 10634 10632 10631 10629 10627 10625 10623 10622 10621 10619 10618 10616 10615 10613 10613 10613 10612 10612 10613 10614 10616 10618 10619 10622 10625 10628 10631 10634 10638 10643 10648 10654 10658 10662 10667 10672 10677 10681
10631 10628 10626 10623 10621 10618 10617 10616 10615 10613 10612 10610 10609 10607 10606 10605 10602 10601 10600 10600 10600 10600 10600 10601 10604 10606 10607 10609 10613 10617 10620 10624 10628 10633 10639 10644 10650 10655 10659 10663 10668 10674
10620 10617 10614 10611 10608 10605 10602 10600 10599 10597 10597 10597 10596 10594 10593 10591 10589 10587 10587 10586 10586 10587 10588 10588 10590 10593 10595 10597 10600 10605 10609 10612 10617 10622 10629 10634 10640 10645 10649 10653 10658 10663
10611 10607 10604 10600 10597 10594 10590 10588 10584 10581 10581 10581 10580 10580 10579 10578 10575 10573 10572 10571 10571 10573 10574 10575 10576 10578 10582 10584 10587 10592 10596 10601 10605 10611 10618 10623 10629 10635 10639 10643 10648 10653
10601 10597 10594 10590 10586 10583 10579 10576 10571 10567 10564 10562 10562 10562 10561 10562 10561 10559 10557 10555 10555 10556 10558 10560 10561 10564 10567 10571 10574 10578 10583 10588 10593 10599 10606 10611 10617 10623 10629 10634 10639 10644
10588 10585 10582 10579 10575 10571 10567 10563 10558 10553 10549 10546 10545 10544 10542 10542 10543 10543 10542 10540 10539 10540 10541 10543 10545 10548 10551 10555 10560 10564 10568 10574 10579 10586 10593 10599 10605 10612 10619 10624 10629 10636
10575 10571 10568 10565 10562 10558 10554 10550 10545 10540 10535 10532 10530 10529 10526 10525 10524 10524 10524 10524 10523 10524 10524 10526 10528 10530 10533 10538 10544 10549 10553 10559 10565 10572 10580 10586 10592 10600 10608 10614 10620 10627
10561 10557 10553 10550 10547 10544 10540 10536 10532 10527 10522 10517 10514 10512 10510 10509 10508 10506 10506 10506 10506 10506 10506 10507 10509 10512 10515 10520 10526 10533 10538 10543 10549 10557 10566 10573 10580 10588 10596 10604 10611 10617
10547 10542 10538 10535 10531 10528 10524 10519 10514 10511 10506 10501 10497 10493 10490 10489 10489 10488 10487 10487 10488 10488 10487 10488 10490 10493 10497 10501 10508 10515 10522 10528 10534 10542 10551 10559 10566 10574 10583 10593 10600 10607
10530 10526 10522 10518 10513 10509 10505 10500 10495 10490 10486 10481 10477 10474 10470 10468 10467 10467 10466 10467 10469 10470 10469 10469 10470 10473 10478 10483 10489 10497 10505 10512 10518 10526 10535 10544 10553 10561 10571 10580 10589 10597
10514 10510 10505 10500 10495 10489 10484 10479 10474 10469 10465 10461 10456 10453 10450 10447 10445 10445 10445 10446 10448 10450 10452 10452 10452 10455 10460 10465 10471 10478 10487 10495 10503 10511 10519 10529 10538 10548 10557 10568 10578 10586
10498 10493 10487 10481 10475 10469 10463 10458 10453 10448 10444 10440 10436 10433 10431 10427 10424 10424 10425 10426 10428 10430 10433 10435 10436 10439 10443 10448 10454 10461 10469 10478 10487 10495 10504 10513 10524 10534 10544 10556 10566 10575
10480 10474 10467 10460 10454 10448 10443 10437 10432 10427 10423 10420 10416 10413 10411 10409 10406 10405 10406 10407 10409 10411 10414 10418 10421 10424 10427 10432 10437 10444 10452 10461 10470 10480 10489 10498 10509 10520 10531 10543 10554 10564
10462 10455 10449 10442 10436 10430 10424 10417 10412 10407 10403 10400 10397 10393 10391 10389 10387 10386 10387 10389 10391 10393 10396 10400 10405 10409 10413 10417 10422 10428 10436 10445 10454 10464 10475 10484 10495 10507 10518 10530 10542 10552
10445 10439 10432 10426 10419 10412 10405 10398 10393 10388 10384 10381 10377 10374 10372 10371 10369 10369 10370 10372 10373 10375 10378 10382 10388 10394 10398 10402 10406 10412 10420 10429 10438 10449 10460 10471 10481 10493 10505 10518 10530 10541
10429 10423 10416 10409 10401 10393 10386 10380 10374 10370 10366 10363 10359 10356 10354 10353 10352 10353 10354 10354 10354 10356 10360 10365 10371 10377 10381 10386 10391 10397 10404 10414 10423 10433 10445 10457 10468 10479 10492 10505 10518 10529
10414 10407 10400 10391 10383 10375 10368 10362 10357 10352 10348 10345 10342 10339 10336 10334 10334 10336 10336 10335 10335 10338 10343 10348 10354 10359 10364 10370 10375 10381 10389 10399 10408 10419 10431 10443 10454 10466 10479 10492 10506 10518
10398 10390 10382 10373 10365 10357 10351 10345 10340 10336 10332 10328 10324 10321 10318 10317 10317 10318 10319 10318 10319 10322 10327 10332 10337 10342 10347 10354 10360 10365 10374 10384 10394 10405 10417 10430 10442 10454 10467 10480 10494 10506
10383 10374 10365 10356 10348 10341 10335 10329 10324 10320 10316 10312 10308 10305 10303 10301 10301 10302 10303 10303 10304 10307 10311 10317 10322 10326 10331 10338 10344 10350 10359 10369 10380 10391 10404 10417 10430 10442 10455 10469 10482 10495
10367 10357 10349 10341 10333 10327 10321 10315 10310 10305 10302 10298 10295 10291 10289 10287 10287 10287 10288 10289 10291 10293 10296 10302 10309 10312 10316 10322 10328 10334 10344 10355 10366 10378 10391 10405 10418 10430 10444 10458 10471 10485
10350 10341 10334 10328 10321 10314 10308 10302 10297 10293 10290 10286 10283 10279 10277 10275 10275 10275 10276 10276 10277 10279 10283 10288 10294 10298 10301 10307 10314 10320 10329 10342 10354 10366 10379 10393 10407 10419 10433 10447 10460 10474
10336 10329 10323 10317 10309 10303 10297 10291 10287 10283 10279 10276 10273 10270 10267 10265 10264 10264 10265 10266 10266 10268 10271 10276 10280 10284 10288 10293 10300 10307 10316 10329 10342 10354 10367 10382 10395 10408 10422 10436 10451 10465
10324 10318 10313 10306 10298 10292 10287 10282 10278 10274 10270 10267 10264 10261 10258 10256 10255 10254 10254 10256 10257 10258 10261 10265 10269 10272 10275 10280 10287 10295 10305 10319 10332 10343 10356 10370 10384 10397 10411 10427 10442 10457
10315 10309 10302 10295 10289 10284 10279 10274 10270 10266 10262 10258 10255 10253 10250 10248 10247 10246 10245 10246 10248 10249 10251 10255 10259 10261 10264 10270 10277 10284 10295 10309 10322 10334 10347 10360 10374 10388 10402 10418 10433 10449
10306 10300 10293 10287 10282 10276 10271 10267 10263 10258 10254 10250 10247 10245 10242 10240 10239 10238 10238 10238 10240 10242 10243 10246 10250 10251 10254 10261 10267 10274 10284 10298 10312 10326 10339 10352 10365 10379 10394 10410 10426 10443